SCP
0 0 0 0 0 0 0 0 0 0 0 0 0 0 0 0 0 0 0 0 0 0 0 0 0 0 0 0 0 0 0 0 0 0 0 0 0 0 0 0 0 0 0 0
0 0 0 0 0 0 0 0 0 0 0 0 0 0 0 0 0 0 0 0 0 0 0 0 0 0 0 0 0 0 0 0 0 0 0 0 0 0 0 0 0 0 0 0
0 0 0 0 0 0 0 0 0 0 0 0 0 0 0 0 0 0 0 0 0 0 0 0 0 0 0 0 0 0 0 0 0 0 0 0 0 0 0 0 0 0 0 0
0 0 0 0 0 0 0 0 0 0 0 0 0 0 0 0 0 0 0 0 0 0 0 0 0 0 0 0 0 0 0 0 0 0 0 0 0 0 0 0 0 0 0 0
0 0 0 0 0 0 0 0 0 0 0 0 0 0 0 0 0 0 0 0 0 0 0 0 0 0 0 0 0 0 0 0 0 0 0 0 0 0 0 0 0 0 0 0
0 0 0 0 0 0 0 0 0 0 0 0 0 0 0 0 0 0 0 0 0 0 0 0 0 0 0 0 0 0 0 0 0 0 0 0 0 0 0 0 0 0 0 0
0 0 0 0 0 0 0 0 0 0 0 0 0 0 0 0 0 0 0 0 0 0 0 0 0 0 0 0 0 0 0 0 0 0 0 0 0 0 0 0 0 0 0 0
0 0 0 0 0 0 0 0 0 0 0 0 0 0 0 0 0 0 0 0 0 0 0 0 0 0 0 0 0 0 0 0 0 0 0 0 0 0 0 0 0 0 0 0
0 0 0 0 0 0 0 0 0 0 0 0 0 0 0 0 0 0 0 0 0 0 0 0 0 0 0 0 0 0 0 0 0 0 0 0 0 0 0 0 0 0 0 0
0 0 0 0 0 0 0 0 0 0 0 0 0 0 0 0 0 0 0 0 0 0 0 0 0 0 0 0 0 0 0 0 0 0 0 0 0 0 0 0 0 0 0 0
0 0 0 0 0 0 0 0 0 0 0 0 0 0 0 0 0 0 0 0 0 0 0 0 0 0 0 0 0 0 0 0 0 0 0 0 0 0 0 0 0 0 0 0
0 0 0 0 0 0 0 0 0 0 0 0 0 0 0 0 0 0 0 0 0 0 0 0 0 0 0 0 0 0 0 0 0 0 0 0 0 0 0 0 0 0 0 0
0 0 0 0 0 0 0 0 0 0 0 0 0 0 0 0 0 0 0 0 0 0 0 0 0 0 0 0 0 0 0 0 0 0 0 0 0 0 0 0 0 0 0 0
0 0 0 0 0 0 0 0 0 0 0 0 0 0 0 0 0 0 0 0 0 0 0 0 0 0 0 0 0 0 0 0 0 0 0 0 0 0 0 0 0 0 0 0
0 0 0 0 0 0 0 0 0 0 0 0 0 0 0 0 0 0 0 0 0 0 0 0 0 0 0 0 0 0 0 0 0 0 0 0 0 0 0 0 0 0 0 0
0 0 0 0 0 0 0 0 0 0 0 0 0 0 0 0 0 0 0 0 0 0 0 0 0 0 0 0 0 0 0 0 0 0 0 0 0 0 0 0 0 0 0 0
0 0 0 0 0 0 0 0 0 0 0 0 0 0 0 0 0 0 0 0 0 0 0 0 0 0 0 0 0 0 0 0 0 0 0 0 0 0 0 0 0 0 0 0
0 0 0 0 0 0 0 0 0 0 0 0 0 0 0 0 0 0 0 0 0 0 0 0 0 0 0 0 0 0 0 0 0 0 0 0 0 0 0 0 0 0 0 0
0 0 0 0 0 0 0 0 0 0 0 0 0 0 0 0 0 0 0 0 0 0 0 0 0 0 0 0 0 0 0 0 0 0 0 0 0 0 0 0 0 0 0 0
0 0 0 0 0 0 0 0 0 0 0 0 0 0 0 0 0 0 0 0 0 0 0 0 0 0 0 0 0 0 0 0 0 0 0 0 0 0 0 0 0 0 0 0
0 0 0 0 0 0 0 0 0 0 0 0 0 0 0 0 0 0 0 0 0 0 0 0 0 0 0 0 0 0 0 0 0 0 0 0 0 0 0 0 0 0 0 0
0 0 0 0 0 0 0 0 0 0 0 0 0 0 0 0 0 0 0 0 0 0 0 0 0 0 0 0 0 0 0 0 0 0 0 0 0 0 0 0 0 0 0 0
0 0 0 0 0 0 0 0 0 0 0 0 0 0 0 0 0 0 0 0 0 0 0 0 0 0 0 0 0 0 0 0 0 0 0 0 0 0 0 0 0 0 0 0
0 0 0 0 0 0 0 0 0 0 0 0 0 0 0 0 0 0 0 0 0 0 0 0 0 0 0 0 0 0 0 0 0 0 0 0 0 0 0 0 0 0 0 0
0 0 0 0 0 0 0 0 0 0 0 0 0 0 0 0 0 0 0 0 0 0 0 0 0 0 0 0 0 0 0 0 0 0 0 0 0 0 0 0 0 0 0 0
0 0 0 0 0 0 0 0 0 0 0 0 0 0 0 0 0 0 0 0 0 0 0 0 0 0 0 0 0 0 0 0 0 0 0 0 0 0 0 0 0 0 0 0
Wind_Speed_500mb
8 13 5 1 4 2 4 2 1 2 6 5 2 3 4 10 24 23 20 14 6 4 7 14 20 32 34 40 37 31 25 24 30 36 35 30 23 22 18 16 15 15 17 22
11 6 5 7 7 8 10 4 3 5 6 5 5 10 4 6 7 17 17 11 5 1 4 5 4 16 29 28 32 36 27 21 22 29 29 27 22 20 18 17 16 15 22 25
10 3 11 6 12 9 7 4 6 4 13 4 12 9 6 2 20 18 14 11 7 5 5 5 5 12 17 20 26 33 26 20 19 24 30 28 24 21 20 19 17 19 23 25
10 12 8 9 9 6 2 6 4 7 8 5 9 9 10 12 9 6 11 12 10 7 8 8 9 11 15 16 22 29 26 20 18 21 25 26 26 25 23 22 22 22 25 26
4 9 11 13 5 6 2 7 5 5 8 7 10 7 13 9 12 10 13 17 14 10 8 10 10 10 13 16 19 24 24 22 21 21 23 26 27 27 27 25 24 25 27 27
5 5 7 1 5 6 3 6 10 7 6 5 7 7 11 11 15 9 18 22 20 16 12 9 10 10 13 16 19 23 24 24 24 24 24 25 26 28 30 30 30 30 32 32
10 5 4 7 2 7 12 11 7 10 7 11 5 2 20 12 10 24 34 33 25 19 16 14 13 13 14 15 16 17 18 19 19 19 20 22 25 28 32 36 40 42 43 41
7 11 5 11 4 5 5 10 9 11 4 9 6 11 12 5 7 31 40 34 27 23 20 18 17 17 16 15 14 13 11 10 11 14 17 21 25 29 32 36 39 42 44 45
6 7 3 5 4 4 4 2 5 13 3 7 6 15 14 7 5 27 35 32 30 27 24 22 20 18 16 13 9 6 2 3 7 11 14 18 23 27 30 32 35 37 38 40
5 6 4 6 1 5 7 4 7 6 3 9 11 13 12 12 19 9 24 38 35 31 29 26 22 18 14 9 3 5 8 12 15 17 21 25 29 33 37 40 43 45 47 48
7 7 9 6 7 13 4 3 7 7 8 8 4 13 13 18 23 29 44 47 43 40 36 31 26 20 16 12 11 13 14 17 20 23 28 32 35 38 39 41 43 46 46 46
1 7 6 17 3 2 4 8 9 8 11 5 4 18 7 12 22 46 56 50 46 43 37 33 27 22 18 14 13 15 19 24 29 33 37 41 43 44 44 43 44 46 47 45
6 3 7 16 7 9 5 10 9 4 6 14 7 15 6 11 17 38 59 56 51 46 40 34 27 22 18 15 14 17 24 31 37 41 43 43 43 45 46 47 48 47 49 49
2 4 14 14 13 7 7 11 12 10 6 6 16 46 25 5 13 23 55 63 54 46 39 35 31 27 21 16 15 26 34 39 42 43 44 43 43 45 46 46 47 49 50 53
7 9 5 13 10 7 13 23 14 20 27 18 51 21 35 13 16 46 53 60 53 46 38 34 34 31 26 20 29 41 40 39 40 40 40 39 42 44 45 47 49 50 50 52
2 6 4 11 5 6 10 35 28 33 31 20 43 49 41 41 22 30 48 57 57 51 40 33 36 39 38 34 42 43 38 34 35 39 41 42 45 46 46 49 52 53 54 56
5 6 6 13 7 9 14 20 26 10 9 15 18 37 13 9 22 30 35 43 60 57 43 34 32 33 32 38 41 46 41 37 37 40 40 45 48 52 53 55 56 57 60 62
9 6 3 10 8 3 15 10 10 19 17 23 16 19 14 13 14 18 19 21 31 41 37 31 22 29 35 36 40 44 42 40 39 46 49 53 56 59 59 61 63 64 68 69
3 7 5 4 6 17 13 3 8 12 13 14 24 28 20 19 10 29 26 27 27 26 24 21 34 39 40 40 43 48 47 50 54 61 61 59 59 63 64 66 67 68 74 76
1 3 8 6 4 14 10 3 2 4 13 6 18 20 18 19 4 8 11 11 13 14 24 34 41 43 45 47 48 54 58 60 64 66 64 63 65 67 70 70 70 72 76 80
4 8 26 18 13 18 21 19 3 9 13 4 14 20 32 13 23 6 19 17 21 27 36 42 43 43 45 47 48 54 56 60 63 63 65 67 66 69 70 73 74 76 79 80
13 10 9 6 5 18 18 12 13 10 15 18 21 23 33 36 23 25 28 28 38 46 45 39 40 42 43 44 50 56 59 60 60 66 70 70 71 71 72 75 78 79 79 82
9 13 8 21 15 7 13 26 37 40 41 37 35 34 36 40 43 40 39 43 47 42 39 35 37 43 46 47 50 59 62 64 68 73 74 74 75 76 75 77 79 79 79 81
11 21 8 7 12 42 52 59 72 74 64 66 61 54 48 49 50 50 50 50 46 42 40 37 41 48 56 56 59 63 67 68 72 76 77 77 80 82 81 78 77 78 80 81
11 8 4 14 36 56 45 48 63 69 64 58 54 51 53 55 59 58 57 52 47 43 41 41 47 54 60 60 63 64 66 68 73 74 76 79 82 84 81 81 82 83 83 77
26 12 7 16 46 36 54 71 78 79 73 69 70 76 70 59 66 63 57 49 45 43 42 45 50 54 59 64 69 70 67 69 73 76 77 79 80 79 79 84 90 91 88 80
Wind_Direction_500mb
35 66 85 326 319 280 282 271 298 285 8 340 348 284 265 106 118 129 132 128 137 230 273 275 251 224 219 218 225 230 232 229 227 224 223 228 239 252 263 272 288 293 308 317
27 86 309 306 357 73 43 71 310 301 360 351 45 280 229 176 142 153 142 128 104 55 319 329 276 222 216 211 214 219 224 237 242 231 230 235 243 253 249 260 287 295 309 312
97 8 331 68 29 50 40 44 356 264 325 16 346 311 200 75 123 129 123 123 103 67 54 74 103 176 188 196 195 208 216 236 243 230 230 236 246 249 255 269 281 295 304 307
71 343 34 55 68 28 103 345 10 14 39 248 26 278 263 207 185 140 132 130 120 106 87 96 116 147 171 176 178 195 211 225 230 233 238 243 249 254 258 263 273 291 302 306
270 16 25 51 360 356 111 37 45 85 87 47 344 65 267 144 229 203 171 145 135 128 124 108 122 154 160 168 179 185 201 216 233 240 243 246 250 249 251 259 274 291 301 305
98 54 54 89 37 45 39 47 35 57 79 17 257 125 274 191 207 183 183 165 155 158 156 140 128 133 162 179 190 199 209 221 228 233 239 243 243 246 254 261 270 282 293 298
360 18 355 36 58 32 56 49 336 351 6 225 301 13 244 240 204 181 171 167 166 171 174 165 158 157 154 158 168 186 198 211 220 228 237 247 254 261 267 272 276 281 286 289
116 330 18 358 68 165 85 135 152 221 249 270 4 241 254 297 193 171 168 165 170 176 174 165 153 145 141 140 148 158 182 215 241 258 266 270 275 277 279 282 285 287 288 288
97 297 341 38 360 71 247 62 144 99 44 38 266 293 297 80 71 153 165 174 181 184 179 173 164 158 150 145 142 155 180 257 270 276 280 283 285 284 284 285 287 288 290 291
166 360 249 278 146 24 147 135 45 7 330 301 291 279 244 239 217 227 195 193 193 191 188 184 181 184 187 192 226 295 293 292 292 295 297 295 292 289 288 288 289 288 286 286
131 96 292 28 194 180 49 337 40 127 150 197 270 263 215 216 197 203 206 202 200 198 195 194 198 206 215 233 264 290 297 300 303 303 301 300 297 295 294 294 293 292 292 291
229 142 240 226 309 89 143 183 164 137 256 255 187 266 200 209 223 212 211 205 203 201 202 206 211 219 228 241 270 294 306 310 312 310 307 305 304 301 298 295 293 291 290 290
173 297 349 337 16 360 196 217 202 73 50 218 166 272 323 279 279 236 220 209 205 202 207 212 217 223 232 252 273 296 306 310 309 306 303 300 300 299 300 300 300 298 295 293
180 197 178 208 207 144 194 236 214 140 148 225 219 262 276 324 268 240 221 221 213 212 213 219 227 232 239 250 287 314 311 306 300 296 293 292 294 297 300 302 304 303 300 297
131 214 222 265 194 171 212 242 195 197 225 208 265 257 265 226 230 242 234 223 221 222 224 230 237 236 241 262 299 317 309 299 291 293 294 294 294 297 297 299 301 304 304 302
58 270 77 290 355 201 237 257 230 229 247 264 262 279 281 263 264 256 245 229 222 223 228 243 252 247 249 279 305 309 303 294 292 294 299 302 305 306 303 302 303 302 302 303
135 118 50 263 350 335 314 235 213 194 215 200 222 249 256 273 252 258 259 244 233 231 243 256 259 264 269 293 299 304 299 296 297 303 307 310 310 308 307 306 305 304 303 301
153 115 110 268 26 315 245 205 196 194 237 225 279 263 217 240 252 245 247 243 236 235 247 252 250 292 300 297 294 302 296 293 299 307 310 312 308 306 306 305 303 302 302 302
219 135 290 264 187 297 284 315 163 178 274 220 226 254 243 233 229 264 251 246 247 248 253 264 297 303 301 298 300 303 295 292 296 306 308 306 304 303 303 301 302 301 300 301
341 231 174 78 186 247 237 255 135 112 290 254 223 252 201 166 168 250 217 206 198 234 284 300 302 299 299 303 302 297 296 296 297 300 303 303 305 303 301 301 300 299 298 300
170 251 225 223 242 282 249 247 140 90 267 260 268 249 192 193 221 223 212 237 272 286 297 298 293 291 293 296 295 292 291 291 296 299 302 305 305 303 301 299 298 298 299 300
182 182 203 203 197 278 200 106 169 256 297 263 257 243 223 230 241 254 256 273 288 287 290 288 288 288 294 299 301 298 297 301 302 302 303 302 303 304 300 298 298 298 298 299
268 196 207 188 212 260 219 252 281 294 287 274 262 260 264 250 247 258 264 279 284 282 287 283 288 292 296 302 305 304 302 302 301 301 302 301 302 302 299 297 297 297 298 300
246 209 237 45 249 259 287 293 294 299 300 293 273 277 268 254 262 260 270 277 280 281 280 284 286 291 296 300 301 299 301 300 299 299 300 301 301 301 298 296 297 298 299 301
227 147 237 260 284 288 294 301 305 311 310 300 291 278 268 265 265 264 271 277 279 279 280 285 289 295 299 305 303 303 302 300 299 300 301 300 298 298 298 297 298 298 298 298
221 219 183 262 285 299 303 309 312 313 305 297 291 287 280 268 268 273 270 275 278 277 282 286 291 297 301 305 305 305 306 304 303 302 300 297 298 296 295 296 297 297 298 297
Wind_Speed_850mb
8 13 5 1 4 2 4 2 1 2 6 5 2 3 4 10 24 23 20 14 6 4 7 14 20 32 34 40 37 31 25 24 30 36 35 30 23 22 18 16 15 15 17 22
11 6 5 7 7 8 10 4 3 5 6 5 5 10 4 6 7 17 17 11 5 1 4 5 4 16 29 28 32 36 27 21 22 29 29 27 22 20 18 17 16 15 22 25
10 3 11 6 12 9 7 4 6 4 13 4 12 9 6 2 20 18 14 11 7 5 5 5 5 12 17 20 26 33 26 20 19 24 30 28 24 21 20 19 17 19 23 25
10 12 8 9 9 6 2 6 4 7 8 5 9 9 10 12 9 6 11 12 10 7 8 8 9 11 15 16 22 29 26 20 18 21 25 26 26 25 23 22 22 22 25 26
4 9 11 13 5 6 2 7 5 5 8 7 10 7 13 9 12 10 13 17 14 10 8 10 10 10 13 16 19 24 24 22 21 21 23 26 27 27 27 25 24 25 27 27
5 5 7 1 5 6 3 6 10 7 6 5 7 7 11 11 15 9 18 22 20 16 12 9 10 10 13 16 19 23 24 24 24 24 24 25 26 28 30 30 30 30 32 32
10 5 4 7 2 7 12 11 7 10 7 11 5 2 20 12 10 24 34 33 25 19 16 14 13 13 14 15 16 17 18 19 19 19 20 22 25 28 32 36 40 42 43 41
7 11 5 11 4 5 5 10 9 11 4 9 6 11 12 5 7 31 40 34 27 23 20 18 17 17 16 15 14 13 11 10 11 14 17 21 25 29 32 36 39 42 44 45
6 7 3 5 4 4 4 2 5 13 3 7 6 15 14 7 5 27 35 32 30 27 24 22 20 18 16 13 9 6 2 3 7 11 14 18 23 27 30 32 35 37 38 40
5 6 4 6 1 5 7 4 7 6 3 9 11 13 12 12 19 9 24 38 35 31 29 26 22 18 14 9 3 5 8 12 15 17 21 25 29 33 37 40 43 45 47 48
7 7 9 6 7 13 4 3 7 7 8 8 4 13 13 18 23 29 44 47 43 40 36 31 26 20 16 12 11 13 14 17 20 23 28 32 35 38 39 41 43 46 46 46
1 7 6 17 3 2 4 8 9 8 11 5 4 18 7 12 22 46 56 50 46 43 37 33 27 22 18 14 13 15 19 24 29 33 37 41 43 44 44 43 44 46 47 45
6 3 7 16 7 9 5 10 9 4 6 14 7 15 6 11 17 38 59 56 51 46 40 34 27 22 18 15 14 17 24 31 37 41 43 43 43 45 46 47 48 47 49 49
2 4 14 14 13 7 7 11 12 10 6 6 16 46 25 5 13 23 55 63 54 46 39 35 31 27 21 16 15 26 34 39 42 43 44 43 43 45 46 46 47 49 50 53
7 9 5 13 10 7 13 23 14 20 27 18 51 21 35 13 16 46 53 60 53 46 38 34 34 31 26 20 29 41 40 39 40 40 40 39 42 44 45 47 49 50 50 52
2 6 4 11 5 6 10 35 28 33 31 20 43 49 41 41 22 30 48 57 57 51 40 33 36 39 38 34 42 43 38 34 35 39 41 42 45 46 46 49 52 53 54 56
5 6 6 13 7 9 14 20 26 10 9 15 18 37 13 9 22 30 35 43 60 57 43 34 32 33 32 38 41 46 41 37 37 40 40 45 48 52 53 55 56 57 60 62
9 6 3 10 8 3 15 10 10 19 17 23 16 19 14 13 14 18 19 21 31 41 37 31 22 29 35 36 40 44 42 40 39 46 49 53 56 59 59 61 63 64 68 69
3 7 5 4 6 17 13 3 8 12 13 14 24 28 20 19 10 29 26 27 27 26 24 21 34 39 40 40 43 48 47 50 54 61 61 59 59 63 64 66 67 68 74 76
1 3 8 6 4 14 10 3 2 4 13 6 18 20 18 19 4 8 11 11 13 14 24 34 41 43 45 47 48 54 58 60 64 66 64 63 65 67 70 70 70 72 76 80
4 8 26 18 13 18 21 19 3 9 13 4 14 20 32 13 23 6 19 17 21 27 36 42 43 43 45 47 48 54 56 60 63 63 65 67 66 69 70 73 74 76 79 80
13 10 9 6 5 18 18 12 13 10 15 18 21 23 33 36 23 25 28 28 38 46 45 39 40 42 43 44 50 56 59 60 60 66 70 70 71 71 72 75 78 79 79 82
9 13 8 21 15 7 13 26 37 40 41 37 35 34 36 40 43 40 39 43 47 42 39 35 37 43 46 47 50 59 62 64 68 73 74 74 75 76 75 77 79 79 79 81
11 21 8 7 12 42 52 59 72 74 64 66 61 54 48 49 50 50 50 50 46 42 40 37 41 48 56 56 59 63 67 68 72 76 77 77 80 82 81 78 77 78 80 81
11 8 4 14 36 56 45 48 63 69 64 58 54 51 53 55 59 58 57 52 47 43 41 41 47 54 60 60 63 64 66 68 73 74 76 79 82 84 81 81 82 83 83 77
26 12 7 16 46 36 54 71 78 79 73 69 70 76 70 59 66 63 57 49 45 43 42 45 50 54 59 64 69 70 67 69 73 76 77 79 80 79 79 84 90 91 88 80
Wind_Direction_850mb
35 66 85 326 319 280 282 271 298 285 8 340 348 284 265 106 118 129 132 128 137 230 273 275 251 224 219 218 225 230 232 229 227 224 223 228 239 252 263 272 288 293 308 317
27 86 309 306 357 73 43 71 310 301 360 351 45 280 229 176 142 153 142 128 104 55 319 329 276 222 216 211 214 219 224 237 242 231 230 235 243 253 249 260 287 295 309 312
97 8 331 68 29 50 40 44 356 264 325 16 346 311 200 75 123 129 123 123 103 67 54 74 103 176 188 196 195 208 216 236 243 230 230 236 246 249 255 269 281 295 304 307
71 343 34 55 68 28 103 345 10 14 39 248 26 278 263 207 185 140 132 130 120 106 87 96 116 147 171 176 178 195 211 225 230 233 238 243 249 254 258 263 273 291 302 306
270 16 25 51 360 356 111 37 45 85 87 47 344 65 267 144 229 203 171 145 135 128 124 108 122 154 160 168 179 185 201 216 233 240 243 246 250 249 251 259 274 291 301 305
98 54 54 89 37 45 39 47 35 57 79 17 257 125 274 191 207 183 183 165 155 158 156 140 128 133 162 179 190 199 209 221 228 233 239 243 243 246 254 261 270 282 293 298
360 18 355 36 58 32 56 49 336 351 6 225 301 13 244 240 204 181 171 167 166 171 174 165 158 157 154 158 168 186 198 211 220 228 237 247 254 261 267 272 276 281 286 289
116 330 18 358 68 165 85 135 152 221 249 270 4 241 254 297 193 171 168 165 170 176 174 165 153 145 141 140 148 158 182 215 241 258 266 270 275 277 279 282 285 287 288 288
97 297 341 38 360 71 247 62 144 99 44 38 266 293 297 80 71 153 165 174 181 184 179 173 164 158 150 145 142 155 180 257 270 276 280 283 285 284 284 285 287 288 290 291
166 360 249 278 146 24 147 135 45 7 330 301 291 279 244 239 217 227 195 193 193 191 188 184 181 184 187 192 226 295 293 292 292 295 297 295 292 289 288 288 289 288 286 286
131 96 292 28 194 180 49 337 40 127 150 197 270 263 215 216 197 203 206 202 200 198 195 194 198 206 215 233 264 290 297 300 303 303 301 300 297 295 294 294 293 292 292 291
229 142 240 226 309 89 143 183 164 137 256 255 187 266 200 209 223 212 211 205 203 201 202 206 211 219 228 241 270 294 306 310 312 310 307 305 304 301 298 295 293 291 290 290
173 297 349 337 16 360 196 217 202 73 50 218 166 272 323 279 279 236 220 209 205 202 207 212 217 223 232 252 273 296 306 310 309 306 303 300 300 299 300 300 300 298 295 293
180 197 178 208 207 144 194 236 214 140 148 225 219 262 276 324 268 240 221 221 213 212 213 219 227 232 239 250 287 314 311 306 300 296 293 292 294 297 300 302 304 303 300 297
131 214 222 265 194 171 212 242 195 197 225 208 265 257 265 226 230 242 234 223 221 222 224 230 237 236 241 262 299 317 309 299 291 293 294 294 294 297 297 299 301 304 304 302
58 270 77 290 355 201 237 257 230 229 247 264 262 279 281 263 264 256 245 229 222 223 228 243 252 247 249 279 305 309 303 294 292 294 299 302 305 306 303 302 303 302 302 303
135 118 50 263 350 335 314 235 213 194 215 200 222 249 256 273 252 258 259 244 233 231 243 256 259 264 269 293 299 304 299 296 297 303 307 310 310 308 307 306 305 304 303 301
153 115 110 268 26 315 245 205 196 194 237 225 279 263 217 240 252 245 247 243 236 235 247 252 250 292 300 297 294 302 296 293 299 307 310 312 308 306 306 305 303 302 302 302
219 135 290 264 187 297 284 315 163 178 274 220 226 254 243 233 229 264 251 246 247 248 253 264 297 303 301 298 300 303 295 292 296 306 308 306 304 303 303 301 302 301 300 301
341 231 174 78 186 247 237 255 135 112 290 254 223 252 201 166 168 250 217 206 198 234 284 300 302 299 299 303 302 297 296 296 297 300 303 303 305 303 301 301 300 299 298 300
170 251 225 223 242 282 249 247 140 90 267 260 268 249 192 193 221 223 212 237 272 286 297 298 293 291 293 296 295 292 291 291 296 299 302 305 305 303 301 299 298 298 299 300
182 182 203 203 197 278 200 106 169 256 297 263 257 243 223 230 241 254 256 273 288 287 290 288 288 288 294 299 301 298 297 301 302 302 303 302 303 304 300 298 298 298 298 299
268 196 207 188 212 260 219 252 281 294 287 274 262 260 264 250 247 258 264 279 284 282 287 283 288 292 296 302 305 304 302 302 301 301 302 301 302 302 299 297 297 297 298 300
246 209 237 45 249 259 287 293 294 299 300 293 273 277 268 254 262 260 270 277 280 281 280 284 286 291 296 300 301 299 301 300 299 299 300 301 301 301 298 296 297 298 299 301
227 147 237 260 284 288 294 301 305 311 310 300 291 278 268 265 265 264 271 277 279 279 280 285 289 295 299 305 303 303 302 300 299 300 301 300 298 298 298 297 298 298 298 298
221 219 183 262 285 299 303 309 312 313 305 297 291 287 280 268 268 273 270 275 278 277 282 286 291 297 301 305 305 305 306 304 303 302 300 297 298 296 295 296 297 297 298 297